map of PPT home
PPT - Airport
Location
City:  Papeete, Tahiti, Society Islands, French Polynesia
Name:Faa'a
ICAO:NTAA
IATA:PPT

Details
Type:Airport (Aerodrome, Airfield)
Latitude:1733'24"S (-17.556666)
Longitude:14936'41"W (-149.611388)
Elevation:7 ft (2 m)
Variation:12.94E (WMM2015v2 magnetic declination)
0.02 annual change
Runways:1
Longest:11220 × 148 ft (3420 × 45 m), paved

Time
Time Zone:UTC-10
Local Time:

Weather
METAR:NTAA 041400Z AUTO 08005KT 9999 NCD 27/22 Q1010 NOSIG
TAF:NTAA 041100Z 0412/0518 06010KT 9999 FEW023 SCT045 BKN180 PROB30
TEMPO 0422/0506 06015G25KT 3000 SHRA FEW016CB SCT020 BKN050
BECMG 0502/0504 VRB05KT

Related Locations
Nearby:
Farthest:EDB: 12388 mi / 19937 km
El Debba (Al Dabbah), NO, SD

Find:

   beyond  
but within

Other Information
Maps:
NOTAMs:
Links:
Sources:

  
  • flag of French Polynesia
  • flag of Society Islands
  

Sectional Chart

Flight Planning
at skyvector.com

Satellite Image

Google Maps Satellite view

 

Copyright © 2004-2019 Karl L. Swartz. All rights reserved.
The Great Circle Mapper name and logo are trademarks of the Great Circle Mapper.
All other trademarks mentioned herein belong to their respective owners.
Please see credits for attibutions and further copyright information.

  Follow gcmap on Facebook Follow gcmap on Twitter GCmap on LinkedIn

hCard Microformat

Geo Microformat